Gorgan, Iran

8:41 AM +0430 on September 20, 2019 (GMT +0430)
Gorgan

Weather History for OING - August, 2019

Change the Weather History Date:

Sunday, August 25, 2019

  Actual Average Record
Temperature  
Mean Temperature 84 °F -  
Max Temperature 96 °F - - ()
Min Temperature 71 °F - - ()
Cooling Degree Days 18    
Growing Degree Days 34 (Base 50)    
Moisture  
Dew Point 71 °F    
Average Humidity 67    
Maximum Humidity 89    
Minimum Humidity 37    
Precipitation  
Precipitation 0.00 in - - ()
Sea Level Pressure  
Sea Level Pressure 29.87 in    
Wind  
Wind Speed 8 mph ()    
Max Wind Speed 21 mph    
Max Gust Speed -    
Visibility 5.7 miles    
Events      
T = Trace of Precipitation, MM = Missing Value Source: Averaged Metar Reports

Daily Weather History Graph

Daily Weather History Graph

Search for Another Location

Airport or City:

Astronomy

Aug. 25, 2019 Rise Set
Actual Time 6:17 AM +0430 7:31 PM +0430
Civil Twilight 5:50 AM +0430 7:58 PM +0430
Nautical Twilight 5:17 AM +0430 8:30 PM +0430
Astronomical Twilight 4:44 AM +0430 9:03 PM +0430
Moon 12:38 AM +0430 (8/25) 3:21 PM +0430 (8/25)
Length of Visible Light 14h 08m
Length of Day
13h 14m
Waning Crescent, 33% of the Moon is Illuminated
Aug 25
Waning Crescent
Aug 30
New
Sep 6
First Quarter
Sep 14
Full
Sep 22
Last Quarter

Hourly Weather History & Observations

Time (+0430) Temp. Heat Index Dew Point Humidity Pressure Visibility Wind Dir Wind Speed Gust Speed Precip Events Conditions
12:30 AM 77.0 °F - 71.6 °F 83% 29.83 in - Calm Calm - N/A   Clear
1:30 AM 74 °F - 69 °F 79% 29.85 in 6 mi Calm Calm - -  
1:30 AM 73.4 °F - 68.0 °F 83% 29.83 in - Calm Calm - N/A   Clear
2:30 AM 71.6 °F - 68.0 °F 88% 29.83 in - South 6.9 mph - N/A   Clear
3:30 AM 73.4 °F - 64.4 °F 73% 29.83 in - SSW 9.2 mph - N/A   Clear
4:30 AM 74 °F - 66 °F 70% 29.86 in 6 mi SSW 8.9 mph - -  
4:30 AM 73.4 °F - 66.2 °F 78% 29.83 in - SSW 9.2 mph - N/A   Clear
5:30 AM 75.2 °F - 68.0 °F 78% 29.86 in - SSW 9.2 mph - N/A   Clear
6:30 AM 73.4 °F - 69.8 °F 88% 29.86 in - South 4.6 mph - N/A   Clear
7:30 AM 78.8 °F - 68.0 °F 69% 29.86 in - SSW 11.5 mph - N/A   Clear
8:30 AM 82.4 °F 86.3 °F 69.8 °F 66% 29.89 in - SSW 11.5 mph - N/A   Clear
9:30 AM 86.0 °F 91.8 °F 71.6 °F 62% 29.89 in - WSW 16.1 mph - N/A   Clear
10:30 AM 87 °F - 73 °F 56% 29.92 in 6 mi WSW 11.2 mph - -  
10:30 AM 87.8 °F 95.6 °F 73.4 °F 62% 29.89 in - WSW 11.5 mph - N/A   Clear
12:00 PM 91.4 °F 98.4 °F 71.6 °F 52% 29.89 in 5.0 mi WSW 16.1 mph - N/A   Unknown
12:30 PM 93.2 °F 102.4 °F 73.4 °F 52% 29.86 in 5.0 mi WSW 13.8 mph - N/A   Partly Cloudy
1:30 PM 92 °F - 74 °F 46% 29.88 in 5 mi WSW 17.9 mph - -   Haze
1:30 PM 93.2 °F 102.4 °F 73.4 °F 52% 30.01 in 5.0 mi WSW 18.4 mph - N/A   Partly Cloudy
2:30 PM 95.0 °F 104.5 °F 73.4 °F 49% 29.86 in 5.0 mi WSW 20.7 mph - N/A   Partly Cloudy
3:30 PM 95.0 °F 103.2 °F 71.6 °F 47% 29.86 in 5.0 mi WSW 20.7 mph - N/A   Partly Cloudy
4:30 PM 94 °F - 71 °F 37% 29.87 in 6 mi WSW 17.9 mph - -   Scattered Clouds
4:30 PM 93.2 °F 98.8 °F 69.8 °F 46% 29.86 in 6.2 mi WSW 18.4 mph - N/A   Partly Cloudy
5:30 PM 91.4 °F 98.4 °F 71.6 °F 52% 29.86 in 6.2 mi WSW 18.4 mph - N/A   Partly Cloudy
6:30 PM 89.6 °F 96.2 °F 71.6 °F 55% 29.86 in 6.2 mi WSW 11.5 mph - N/A   Partly Cloudy
7:30 PM 85 °F - 73 °F 60% 29.88 in 6 mi WSW 11.2 mph - -   Scattered Clouds
7:30 PM 84.2 °F 90.9 °F 73.4 °F 70% 29.86 in 6.2 mi WSW 11.5 mph - N/A   Partly Cloudy
8:30 PM 80.6 °F 85.4 °F 73.4 °F 79% 29.89 in 6.2 mi SSW 4.6 mph - N/A   Partly Cloudy
9:30 PM 78.8 °F - 73.4 °F 83% 29.89 in - Calm Calm - N/A   Clear
10:30 PM 77 °F - 72 °F 81% 29.92 in 6 mi South 4.5 mph - -  
10:30 PM 77.0 °F - 71.6 °F 83% 29.89 in - South 4.6 mph - N/A   Clear
11:30 PM 75.2 °F - 71.6 °F 89% 29.89 in - Calm Calm - N/A   Clear